SCP
0 0 0 0 0 0 0 0 0 0 0 0 0 0 0 0 0 0 0 0 0 0 0 0 0 0 0 0 0 0 0 0 0
0 0 0 0 0 0 0 0 0 0 0 0 0 0 0 0 0 0 0 0 0 0 0 0 0 0 0 0 0 0 0 0 0
0 0 0 0 0 0 0 0 0 0 0 0 0 0 0 0 0 0 0 0 0 0 0 0 0 0 0 0 0 0 0 0 0
0 0 0 0 0 0 0 0 0 0 0 0 0 0 0 0 0 0 0 0 0 0 0 0 0 0 0 0 0 0 0 0 0
0 0 0 0 0 0 0 0 0 0 0 0 0 0 0 0 0 0 0 0 0 0 0 0 0 0 0 0 0 0 0 0 0
0 0 0 0 0 1 0 0 1 0 0 0 0 0 0 0 0 0 0 0 0 0 0 0 0 0 0 0 0 0 0 0 0
0 0 0 0 0 0 1 1 1 0 0 0 0 0 0 0 0 0 0 0 0 0 0 0 0 0 0 0 0 0 0 0 0
0 0 0 0 0 0 0 0 1 1 0 0 0 0 0 0 0 0 0 0 0 0 0 0 0 0 0 0 0 0 0 0 0
0 0 0 0 0 0 0 0 0 0 0 0 0 0 0 0 0 0 0 0 0 0 0 0 0 0 0 0 0 0 0 0 0
0 0 0 0 0 0 0 0 0 0 0 0 0 0 0 0 0 0 0 0 0 0 0 0 0 0 0 0 0 0 0 0 0
0 0 0 0 0 0 0 0 0 0 0 0 0 0 0 0 0 0 0 0 0 0 0 0 0 0 0 0 0 0 0 0 0
0 0 0 0 0 0 0 0 0 0 0 0 0 0 0 0 0 0 0 0 0 0 0 0 0 0 0 0 0 0 0 0 0
0 0 0 0 0 0 0 0 1 0 0 0 0 0 0 0 0 0 0 0 0 0 0 0 0 0 0 0 0 0 0 0 0
0 0 0 0 0 0 0 0 1 0 0 1 1 0 0 0 0 0 0 0 0 0 0 0 0 0 0 0 0 0 0 0 0
0 0 0 0 0 0 0 0 0 1 0 1 0 0 0 0 0 0 0 0 0 0 0 0 0 0 0 0 0 0 0 0 0
0 0 0 0 0 0 0 0 0 0 0 0 0 0 0 0 0 0 0 0 0 0 0 0 0 0 0 0 0 0 0 0 0
0 0 0 0 0 0 0 0 0 0 0 0 0 0 0 0 0 0 0 0 0 0 0 0 0 0 0 0 0 0 0 0 0
0 0 0 0 0 0 0 0 0 0 0 0 0 0 0 0 0 0 0 0 0 0 0 0 0 0 0 0 0 0 0 0 0
0 0 0 0 0 0 0 0 0 1 0 0 1 0 0 0 0 0 0 0 0 0 0 0 0 0 0 0 0 0 0 0 0
0 0 0 0 0 0 0 0 0 0 0 0 0 0 0 0 0 0 0 0 0 0 0 0 0 0 0 0 0 0 0 0 0
Wind_Speed_500mb
18 19 17 18 20 20 21 20 21 16 14 17 22 23 20 16 12 11 14 8 5 7 6 4 3 2 2 3 3 1 1 4 7
23 22 23 21 22 25 24 25 26 20 17 20 25 28 25 22 18 15 13 13 10 10 9 8 6 5 5 4 3 3 3 4 6
28 26 26 26 25 26 31 30 31 27 23 23 27 30 32 29 24 20 17 15 14 15 13 12 10 8 7 6 5 4 3 4 6
35 34 32 31 31 30 32 35 34 36 30 26 30 33 35 35 31 27 23 19 17 18 17 16 14 12 10 9 8 7 6 6 6
41 40 39 37 35 35 36 38 38 38 40 33 32 35 39 40 38 33 27 25 22 20 19 19 18 16 14 12 11 10 9 9 9
45 44 43 42 41 41 41 43 44 42 43 44 38 39 43 43 42 39 33 30 27 23 21 22 22 20 19 17 15 14 13 12 13
45 49 49 47 47 47 49 50 49 49 52 51 53 49 47 49 46 45 41 36 33 30 26 26 26 25 23 21 19 18 17 17 17
50 51 52 53 52 55 55 54 56 59 58 55 58 58 50 54 52 51 48 44 38 36 32 29 30 29 28 26 24 23 22 21 22
54 56 55 57 52 51 56 58 58 57 56 58 60 62 59 54 55 55 53 51 46 41 37 34 33 34 33 31 29 27 26 26 25
64 65 62 62 61 58 57 62 62 60 59 60 60 65 65 60 57 58 57 57 54 49 44 40 38 38 38 37 35 33 31 30 29
63 67 73 73 72 70 70 72 69 67 69 67 65 69 68 69 65 62 62 61 63 57 55 48 44 41 43 42 41 38 36 35 34
62 68 71 70 73 74 79 78 77 73 70 71 69 68 71 70 73 67 62 60 68 67 62 57 52 47 44 45 46 44 42 40 39
65 67 72 72 68 67 70 73 77 75 74 73 71 67 69 71 71 71 62 65 60 72 64 62 58 53 50 47 47 48 44 41 42
58 65 68 65 70 69 66 72 76 78 75 72 72 71 69 68 72 68 65 73 74 73 69 66 60 58 55 51 50 48 48 49 46
51 60 66 66 67 72 71 68 73 77 77 73 75 73 70 69 73 70 67 43 81 78 81 75 70 70 65 60 57 54 53 54 54
50 57 64 63 73 70 66 65 64 67 70 73 74 73 72 68 62 56 57 56 51 76 69 80 78 69 62 69 68 61 57 53 55
49 53 62 63 59 67 68 56 59 66 69 70 65 44 58 64 62 61 53 42 45 55 63 59 68 73 64 67 66 73 67 63 62
52 56 59 54 50 57 63 56 52 52 64 69 59 22 28 35 44 53 58 54 49 48 41 51 54 63 68 75 76 80 81 79 72
53 51 54 37 36 42 44 50 47 43 56 67 73 62 27 20 14 23 33 42 48 41 42 44 55 46 44 46 49 54 60 60 68
34 35 39 30 19 28 30 34 43 55 51 62 57 64 74 71 46 35 39 41 36 47 47 45 44 38 42 45 45 47 46 53 57
Wind_Direction_500mb
279 277 281 263 256 255 240 237 233 254 247 216 212 211 216 219 216 215 214 245 250 263 260 258 266 262 217 195 181 203 226 181 184
278 277 273 270 263 255 247 240 239 248 244 222 218 220 227 236 238 240 243 248 257 250 241 250 255 248 236 225 217 223 208 184 183
277 275 272 268 262 259 252 251 249 246 247 234 224 226 233 241 247 251 253 243 257 250 246 244 247 247 247 246 250 251 221 197 186
276 274 272 269 263 260 257 255 254 249 248 242 233 230 233 239 245 250 249 249 251 253 247 252 253 250 242 239 237 232 226 215 202
275 274 273 269 265 261 257 254 257 254 248 251 243 237 236 238 240 247 248 249 248 257 247 250 254 252 248 244 245 239 229 216 213
276 273 272 270 266 262 260 256 255 256 253 249 248 242 240 241 240 245 247 248 247 249 250 251 252 251 250 246 242 240 235 228 221
283 277 272 269 265 261 257 255 254 252 249 249 246 243 241 242 244 243 245 246 246 247 250 252 251 252 251 250 248 244 236 233 228
275 278 278 274 269 265 258 253 251 250 252 250 248 245 243 244 244 244 244 245 247 245 249 252 251 251 252 250 246 242 240 236 234
263 270 274 274 271 273 260 256 255 255 257 257 252 250 246 246 246 243 242 242 244 244 247 252 255 252 252 251 249 247 245 242 240
265 263 264 268 266 264 267 260 258 254 254 254 256 252 249 245 246 244 241 242 243 244 244 253 256 254 252 252 250 248 246 245 245
268 267 264 263 263 263 261 262 263 260 258 257 256 254 249 249 246 243 241 241 243 245 245 246 255 258 253 251 251 249 249 248 247
278 271 270 269 264 264 263 259 257 261 260 259 257 256 251 249 251 248 240 240 242 243 243 244 247 255 261 258 252 248 247 248 249
281 279 275 274 272 268 266 264 256 262 264 260 259 257 255 252 252 254 249 240 244 240 242 243 246 252 257 260 260 250 252 250 252
287 282 277 278 272 271 266 261 263 263 265 262 259 260 257 255 255 256 252 245 241 241 237 241 246 251 254 257 258 261 257 256 255
295 290 283 278 280 273 270 267 264 265 264 263 262 263 262 258 255 256 251 283 248 242 239 235 237 241 248 254 262 262 262 260 260
305 297 292 285 278 278 275 272 266 266 267 266 263 260 258 254 256 255 250 264 263 248 246 245 241 238 240 250 261 260 260 262 261
312 310 300 290 284 277 277 270 270 265 267 262 256 251 246 246 248 248 247 250 244 237 246 254 252 253 251 257 262 261 257 263 262
319 317 311 293 285 281 269 272 272 275 273 264 246 224 233 242 243 244 245 244 241 245 251 251 249 254 255 256 255 254 262 262 258
316 317 312 300 285 278 275 268 268 273 271 262 253 232 245 216 214 224 232 237 244 251 250 256 257 257 260 262 263 268 265 262 260
326 318 333 328 311 266 260 276 262 265 268 264 250 245 248 240 244 248 249 254 247 246 247 253 252 255 268 274 271 267 272 276 268
Wind_Speed_850mb
18 19 17 18 20 20 21 20 21 16 14 17 22 23 20 16 12 11 14 8 5 7 6 4 3 2 2 3 3 1 1 4 7
23 22 23 21 22 25 24 25 26 20 17 20 25 28 25 22 18 15 13 13 10 10 9 8 6 5 5 4 3 3 3 4 6
28 26 26 26 25 26 31 30 31 27 23 23 27 30 32 29 24 20 17 15 14 15 13 12 10 8 7 6 5 4 3 4 6
35 34 32 31 31 30 32 35 34 36 30 26 30 33 35 35 31 27 23 19 17 18 17 16 14 12 10 9 8 7 6 6 6
41 40 39 37 35 35 36 38 38 38 40 33 32 35 39 40 38 33 27 25 22 20 19 19 18 16 14 12 11 10 9 9 9
45 44 43 42 41 41 41 43 44 42 43 44 38 39 43 43 42 39 33 30 27 23 21 22 22 20 19 17 15 14 13 12 13
45 49 49 47 47 47 49 50 49 49 52 51 53 49 47 49 46 45 41 36 33 30 26 26 26 25 23 21 19 18 17 17 17
50 51 52 53 52 55 55 54 56 59 58 55 58 58 50 54 52 51 48 44 38 36 32 29 30 29 28 26 24 23 22 21 22
54 56 55 57 52 51 56 58 58 57 56 58 60 62 59 54 55 55 53 51 46 41 37 34 33 34 33 31 29 27 26 26 25
64 65 62 62 61 58 57 62 62 60 59 60 60 65 65 60 57 58 57 57 54 49 44 40 38 38 38 37 35 33 31 30 29
63 67 73 73 72 70 70 72 69 67 69 67 65 69 68 69 65 62 62 61 63 57 55 48 44 41 43 42 41 38 36 35 34
62 68 71 70 73 74 79 78 77 73 70 71 69 68 71 70 73 67 62 60 68 67 62 57 52 47 44 45 46 44 42 40 39
65 67 72 72 68 67 70 73 77 75 74 73 71 67 69 71 71 71 62 65 60 72 64 62 58 53 50 47 47 48 44 41 42
58 65 68 65 70 69 66 72 76 78 75 72 72 71 69 68 72 68 65 73 74 73 69 66 60 58 55 51 50 48 48 49 46
51 60 66 66 67 72 71 68 73 77 77 73 75 73 70 69 73 70 67 43 81 78 81 75 70 70 65 60 57 54 53 54 54
50 57 64 63 73 70 66 65 64 67 70 73 74 73 72 68 62 56 57 56 51 76 69 80 78 69 62 69 68 61 57 53 55
49 53 62 63 59 67 68 56 59 66 69 70 65 44 58 64 62 61 53 42 45 55 63 59 68 73 64 67 66 73 67 63 62
52 56 59 54 50 57 63 56 52 52 64 69 59 22 28 35 44 53 58 54 49 48 41 51 54 63 68 75 76 80 81 79 72
53 51 54 37 36 42 44 50 47 43 56 67 73 62 27 20 14 23 33 42 48 41 42 44 55 46 44 46 49 54 60 60 68
34 35 39 30 19 28 30 34 43 55 51 62 57 64 74 71 46 35 39 41 36 47 47 45 44 38 42 45 45 47 46 53 57
Wind_Direction_850mb
279 277 281 263 256 255 240 237 233 254 247 216 212 211 216 219 216 215 214 245 250 263 260 258 266 262 217 195 181 203 226 181 184
278 277 273 270 263 255 247 240 239 248 244 222 218 220 227 236 238 240 243 248 257 250 241 250 255 248 236 225 217 223 208 184 183
277 275 272 268 262 259 252 251 249 246 247 234 224 226 233 241 247 251 253 243 257 250 246 244 247 247 247 246 250 251 221 197 186
276 274 272 269 263 260 257 255 254 249 248 242 233 230 233 239 245 250 249 249 251 253 247 252 253 250 242 239 237 232 226 215 202
275 274 273 269 265 261 257 254 257 254 248 251 243 237 236 238 240 247 248 249 248 257 247 250 254 252 248 244 245 239 229 216 213
276 273 272 270 266 262 260 256 255 256 253 249 248 242 240 241 240 245 247 248 247 249 250 251 252 251 250 246 242 240 235 228 221
283 277 272 269 265 261 257 255 254 252 249 249 246 243 241 242 244 243 245 246 246 247 250 252 251 252 251 250 248 244 236 233 228
275 278 278 274 269 265 258 253 251 250 252 250 248 245 243 244 244 244 244 245 247 245 249 252 251 251 252 250 246 242 240 236 234
263 270 274 274 271 273 260 256 255 255 257 257 252 250 246 246 246 243 242 242 244 244 247 252 255 252 252 251 249 247 245 242 240
265 263 264 268 266 264 267 260 258 254 254 254 256 252 249 245 246 244 241 242 243 244 244 253 256 254 252 252 250 248 246 245 245
268 267 264 263 263 263 261 262 263 260 258 257 256 254 249 249 246 243 241 241 243 245 245 246 255 258 253 251 251 249 249 248 247
278 271 270 269 264 264 263 259 257 261 260 259 257 256 251 249 251 248 240 240 242 243 243 244 247 255 261 258 252 248 247 248 249
281 279 275 274 272 268 266 264 256 262 264 260 259 257 255 252 252 254 249 240 244 240 242 243 246 252 257 260 260 250 252 250 252
287 282 277 278 272 271 266 261 263 263 265 262 259 260 257 255 255 256 252 245 241 241 237 241 246 251 254 257 258 261 257 256 255
295 290 283 278 280 273 270 267 264 265 264 263 262 263 262 258 255 256 251 283 248 242 239 235 237 241 248 254 262 262 262 260 260
305 297 292 285 278 278 275 272 266 266 267 266 263 260 258 254 256 255 250 264 263 248 246 245 241 238 240 250 261 260 260 262 261
312 310 300 290 284 277 277 270 270 265 267 262 256 251 246 246 248 248 247 250 244 237 246 254 252 253 251 257 262 261 257 263 262
319 317 311 293 285 281 269 272 272 275 273 264 246 224 233 242 243 244 245 244 241 245 251 251 249 254 255 256 255 254 262 262 258
316 317 312 300 285 278 275 268 268 273 271 262 253 232 245 216 214 224 232 237 244 251 250 256 257 257 260 262 263 268 265 262 260
326 318 333 328 311 266 260 276 262 265 268 264 250 245 248 240 244 248 249 254 247 246 247 253 252 255 268 274 271 267 272 276 268